When you browse on this site, cookies collect data to enhance your experience and personalize the content and advertising you see.
Visit our Privacy Policy to learn more. By continuing to use the site, you agree to this use of cookies and data.

Stündliche Wetter Hamburg

Heute, 6 Juli, Montag

Zeit Temperatur Niederschläge Wind Luftdruck Luftfeuchtigkeit
00:00 +14°C° 0.1 mm 3 m/S 754 mmHg 91%
01:00 +15°C° 0 mm 2 m/S 754 mmHg 92%
02:00 +13°C° 0.2 mm 3 m/S 754 mmHg 92%
03:00 +13°C° 0.2 mm 4 m/S 754 mmHg 91%
04:00 +12°C° 0.2 mm 5 m/S 753 mmHg 91%
05:00 +13°C° 0 mm 6 m/S 754 mmHg 87%
06:00 +13°C° 0 mm 6 m/S 754 mmHg 84%
07:00 +14°C° 0 mm 7 m/S 754 mmHg 80%
08:00 +14°C° 0.2 mm 7 m/S 754 mmHg 77%
09:00 +15°C° 0.2 mm 8 m/S 754 mmHg 73%
10:00 +16°C° 0.2 mm 8 m/S 754 mmHg 69%
11:00 +16°C° 0.6 mm 8 m/S 755 mmHg 70%
12:00 +16°C° 0.6 mm 8 m/S 755 mmHg 70%
13:00 +16°C° 0.6 mm 8 m/S 756 mmHg 71%
14:00 +16°C° 0.4 mm 8 m/S 756 mmHg 69%
15:00 +16°C° 0.4 mm 8 m/S 757 mmHg 68%
16:00 +16°C° 0.4 mm 8 m/S 757 mmHg 66%
17:00 +16°C° 0.1 mm 7 m/S 758 mmHg 69%
18:00 +15°C° 0.1 mm 6 m/S 758 mmHg 72%
19:00 +15°C° 0.1 mm 5 m/S 759 mmHg 74%
20:00 +13°C° 0 mm 5 m/S 759 mmHg 78%
21:00 +12°C° 0 mm 4 m/S 760 mmHg 82%
22:00 +11°C° 0 mm 3 m/S 761 mmHg 86%
23:00 +11°C° 0 mm 4 m/S 761 mmHg 86%

Morgen, 7 Juli, Dienstag

Zeit Temperatur Niederschläge Wind Luftdruck Luftfeuchtigkeit
00:00 +11°C° 0 mm 4 m/S 761 mmHg 86%
01:00 +10°C° 0 mm 4 m/S 761 mmHg 87%
02:00 +10°C° 0 mm 4 m/S 761 mmHg 84%
03:00 +11°C° 0 mm 4 m/S 761 mmHg 81%
04:00 +11°C° 0 mm 3 m/S 762 mmHg 79%
05:00 +12°C° 0 mm 3 m/S 762 mmHg 77%
06:00 +12°C° 0 mm 3 m/S 762 mmHg 75%
07:00 +13°C° 0 mm 4 m/S 762 mmHg 73%
08:00 +14°C° 0.1 mm 4 m/S 762 mmHg 70%
09:00 +15°C° 0.1 mm 4 m/S 762 mmHg 68%
10:00 +16°C° 0.1 mm 5 m/S 762 mmHg 65%
11:00 +16°C° 0.1 mm 5 m/S 762 mmHg 61%
12:00 +17°C° 0.1 mm 5 m/S 762 mmHg 57%
13:00 +19°C° 0.1 mm 5 m/S 761 mmHg 54%
14:00 +16°C° 0.3 mm 5 m/S 761 mmHg 65%
15:00 +15°C° 0.3 mm 5 m/S 760 mmHg 75%
16:00 +13°C° 0.3 mm 5 m/S 760 mmHg 86%
17:00 +14°C° 0 mm 5 m/S 760 mmHg 82%
18:00 +14°C° 0 mm 4 m/S 760 mmHg 78%
19:00 +14°C° 0 mm 4 m/S 760 mmHg 74%
20:00 +13°C° 0 mm 4 m/S 760 mmHg 77%
21:00 +12°C° 0 mm 4 m/S 760 mmHg 79%
22:00 +11°C° 0 mm 3 m/S 760 mmHg 82%
23:00 +11°C° 0.1 mm 3 m/S 760 mmHg 84%

übermorgen, 8 Juli, Mittwoch

Zeit Temperatur Niederschläge Wind Luftdruck Luftfeuchtigkeit
00:00 +11°C° 0.1 mm 4 m/S 760 mmHg 87%
01:00 +11°C° 0.1 mm 4 m/S 759 mmHg 89%
02:00 +11°C° 0.1 mm 4 m/S 759 mmHg 90%
03:00 +11°C° 0.1 mm 4 m/S 759 mmHg 90%
04:00 +10°C° 0.1 mm 4 m/S 759 mmHg 90%
05:00 +11°C° 0.1 mm 4 m/S 759 mmHg 90%
06:00 +11°C° 0.1 mm 3 m/S 759 mmHg 89%
07:00 +11°C° 0.1 mm 3 m/S 759 mmHg 89%
08:00 +13°C° 0.2 mm 3 m/S 759 mmHg 85%
09:00 +14°C° 0.2 mm 3 m/S 759 mmHg 82%
10:00 +16°C° 0.2 mm 3 m/S 760 mmHg 78%
11:00 +15°C° 0.3 mm 4 m/S 760 mmHg 75%
12:00 +17°C° 0.3 mm 4 m/S 760 mmHg 72%
13:00 +18°C° 0.3 mm 4 m/S 760 mmHg 69%
14:00 +18°C° 0.1 mm 4 m/S 760 mmHg 64%
15:00 +17°C° 0.1 mm 5 m/S 760 mmHg 59%
16:00 +19°C° 0.1 mm 5 m/S 760 mmHg 54%
17:00 +18°C° 0 mm 4 m/S 761 mmHg 59%
18:00 +17°C° 0 mm 4 m/S 761 mmHg 63%
19:00 +16°C° 0 mm 3 m/S 761 mmHg 68%
20:00 +13°C° 0 mm 3 m/S 761 mmHg 75%
21:00 +13°C° 0 mm 2 m/S 762 mmHg 82%
22:00 +10°C° 0 mm 2 m/S 762 mmHg 89%
23:00 +9°C° 0 mm 2 m/S 762 mmHg 90%

9 Juli, Donnerstag

Zeit Temperatur Niederschläge Wind Luftdruck Luftfeuchtigkeit
00:00 +10°C° 0 mm 1 m/S 762 mmHg 90%
01:00 +10°C° 0 mm 1 m/S 763 mmHg 91%
02:00 +9°C° 0 mm 1 m/S 763 mmHg 92%
03:00 +9°C° 0 mm 1 m/S 763 mmHg 92%
04:00 +9°C° 0 mm 1 m/S 763 mmHg 92%
05:00 +10°C° 0 mm 1 m/S 763 mmHg 87%
06:00 +12°C° 0 mm 1 m/S 763 mmHg 81%
07:00 +14°C° 0 mm 1 m/S 763 mmHg 76%
08:00 +15°C° 0 mm 2 m/S 763 mmHg 69%
09:00 +16°C° 0 mm 2 m/S 763 mmHg 63%
10:00 +18°C° 0 mm 2 m/S 763 mmHg 56%
11:00 +19°C° 0 mm 2 m/S 762 mmHg 54%
12:00 +20°C° 0 mm 3 m/S 762 mmHg 53%
13:00 +20°C° 0 mm 3 m/S 762 mmHg 51%
14:00 +20°C° 0 mm 3 m/S 761 mmHg 57%
15:00 +19°C° 0 mm 3 m/S 761 mmHg 63%
16:00 +19°C° 0 mm 3 m/S 761 mmHg 69%
17:00 +19°C° 0 mm 3 m/S 760 mmHg 72%
18:00 +18°C° 0 mm 3 m/S 760 mmHg 75%
19:00 +18°C° 0 mm 3 m/S 759 mmHg 78%
20:00 +18°C° 0 mm 3 m/S 759 mmHg 80%
21:00 +18°C° 0 mm 3 m/S 758 mmHg 81%
22:00 +18°C° 0 mm 3 m/S 758 mmHg 83%
23:00 +18°C° 0.1 mm 4 m/S 758 mmHg 84%

10 Juli, Freitag

Zeit Temperatur Niederschläge Wind Luftdruck Luftfeuchtigkeit
00:00 +18°C° 0.1 mm 4 m/S 757 mmHg 85%
01:00 +18°C° 0.1 mm 4 m/S 757 mmHg 86%
02:00 +18°C° 0.3 mm 4 m/S 756 mmHg 88%
03:00 +18°C° 0.3 mm 4 m/S 756 mmHg 91%
04:00 +17°C° 0.3 mm 4 m/S 755 mmHg 93%
05:00 +18°C° 0.1 mm 4 m/S 755 mmHg 92%
06:00 +17°C° 0.1 mm 5 m/S 755 mmHg 90%
07:00 +19°C° 0.1 mm 5 m/S 754 mmHg 89%
08:00 +19°C° 0.3 mm 5 m/S 754 mmHg 88%
09:00 +19°C° 0.3 mm 6 m/S 754 mmHg 87%
10:00 +19°C° 0.3 mm 6 m/S 754 mmHg 86%
11:00 +19°C° 0.5 mm 6 m/S 754 mmHg 83%
12:00 +20°C° 0.5 mm 6 m/S 755 mmHg 79%
13:00 +20°C° 0.5 mm 7 m/S 755 mmHg 76%
14:00 +20°C° 0.1 mm 7 m/S 755 mmHg 70%
15:00 +20°C° 0.1 mm 7 m/S 755 mmHg 64%
16:00 +20°C° 0.1 mm 7 m/S 756 mmHg 59%
17:00 +17°C° 0.1 mm 7 m/S 756 mmHg 64%
18:00 +16°C° 0.1 mm 6 m/S 756 mmHg 69%
19:00 +15°C° 0.1 mm 6 m/S 756 mmHg 74%
20:00 +14°C° 0 mm 6 m/S 756 mmHg 74%
21:00 +13°C° 0 mm 6 m/S 757 mmHg 74%
22:00 +11°C° 0 mm 6 m/S 757 mmHg 73%
23:00 +11°C° 0 mm 6 m/S 758 mmHg 74%

11 Juli, Samstag

Zeit Temperatur Niederschläge Wind Luftdruck Luftfeuchtigkeit
00:00 +11°C° 0 mm 6 m/S 758 mmHg 74%
01:00 +11°C° 0 mm 6 m/S 758 mmHg 75%
02:00 +11°C° 0.1 mm 6 m/S 759 mmHg 77%
03:00 +11°C° 0.1 mm 6 m/S 759 mmHg 78%
04:00 +10°C° 0.1 mm 5 m/S 759 mmHg 80%
05:00 +11°C° 0.1 mm 6 m/S 760 mmHg 79%
06:00 +11°C° 0.1 mm 6 m/S 760 mmHg 78%
07:00 +13°C° 0.1 mm 6 m/S 760 mmHg 77%
08:00 +13°C° 0.2 mm 6 m/S 761 mmHg 74%
09:00 +14°C° 0.2 mm 7 m/S 761 mmHg 72%
10:00 +14°C° 0.2 mm 7 m/S 762 mmHg 70%
11:00 +15°C° 0.2 mm 7 m/S 762 mmHg 68%
12:00 +15°C° 0.2 mm 7 m/S 763 mmHg 66%
13:00 +16°C° 0.2 mm 7 m/S 763 mmHg 64%
14:00 +16°C° 0.2 mm 7 m/S 764 mmHg 62%
15:00 +16°C° 0.2 mm 7 m/S 764 mmHg 61%
16:00 +17°C° 0.2 mm 7 m/S 764 mmHg 59%
17:00 +16°C° 0 mm 6 m/S 764 mmHg 62%
18:00 +15°C° 0 mm 6 m/S 764 mmHg 64%
19:00 +14°C° 0 mm 5 m/S 764 mmHg 66%
20:00 +13°C° 0 mm 4 m/S 765 mmHg 71%
21:00 +12°C° 0 mm 3 m/S 765 mmHg 76%
22:00 +11°C° 0 mm 3 m/S 766 mmHg 80%
23:00 +10°C° 0 mm 3 m/S 766 mmHg 84%
Mehr zeigen